User: anonymous   Login
Location: Vancouver
(49.2500°N, 123.1330°W)
Time: 14:23:00
(UTC-07:00)
Language:

CZ-2C R/B - Orbit

View from above orbital plane
View from above orbital plane
View from above satellite
View from above satellite

Ground track
Ground track

The orbit data is extracted from the following two-line orbital elements,

1 28480U 04046B   17263.91319231  .00000021  00000-0  24174-4 0  9999
2 28480  98.1961 353.9391 0140914 302.3471 169.5922 14.25648120667871
Epoch (UTC): 20 September 2017 21:54:59
Eccentricity: 0.0140914
inclination: 98.1961°
perigee height: 705 km
apogee height: 907 km
right ascension of ascending node: 353.9391°
argument of perigee: 302.3471°
revolutions per day: 14.25648120
mean anomaly at epoch: 169.5922°
orbit number at epoch: 66787

The dashed part of the orbit path shows where the satellite is in the earth's shadow,  

DLR